Regional Weather Roundup
Issued by NWS Wilmington, NC

Home | Current Version | Previous Version | Text Only | Print | Product List | Glossary On
Versions: 1 2 3 4 5 6 7 8 9 10 11 12 13 14 15 16 17 18 19 20 21 22 23 24 25 26 27 28 29 30 31 32 33 34 35 36 37 38 39 40 41 42 43 44 45 46 47 48 49 50
000
ASUS42 KILM 061713
RWRILM
RWRILM
REGIONAL HOURLY WEATHER ROUNDUP
NATIONAL WEATHER SERVICE WILMINGTON NC
100 PM EDT WED MAY 06 2015

NOTE: "FAIR" INDICATES FEW OR NO CLOUDS BELOW 12,000 FEET WITH NO
SIGNIFICANT WEATHER AND/OR OBSTRUCTIONS TO VISIBILITY.

...............WFO WILMINGTON COUNTY WARNING AREA...............

......COASTAL NC AND SC COUNTIES......

CITY           SKY/WX    TMP DP  RH WIND       PRES   REMARKS
WILMINGTON     CLOUDY    75  56  51 E12       30.19F
N MYRTLE BEACH CLOUDY    75  60  59 E13       30.17F
MYRTLE BEACH   MOSUNNY   77  59  53 E16       30.20F

......INLAND NC AND SC COUNTIES.......

CITY           SKY/WX    TMP DP  RH WIND       PRES   REMARKS
LUMBERTON      PTSUNNY   79  50  36 VRB6      30.18F
ELIZABETHTOWN  PTSUNNY   77  49  37 E6        30.19F
WHITEVILLE     PTSUNNY   75  55  49 E6        30.19S
FLORENCE       MOSUNNY   79  49  34 NE9G20    30.18F
DARLINGTON     MOSUNNY   81  55  41 NE12      30.20F

....................REST OF NORTH CAROLINA......................

.........EASTERN NC.........

CITY           SKY/WX    TMP DP  RH WIND       PRES   REMARKS
CAPE HATTERAS  CLOUDY    73  56  54 SE7       30.23F
JACKSONVILLE   CLOUDY    75  52  43 NE10      30.20F
MOREHEAD CITY  CLOUDY    73  58  59 E9        30.21F
KENANSVILLE    PTSUNNY   75  49  39 E3        30.21F
NEW BERN       CLOUDY    75  54  47 E8        30.22F
ELIZABETH CITY PTSUNNY   74  57  55 E7        30.23F

.........CENTRAL NC.........

CITY           SKY/WX    TMP DP  RH WIND       PRES   REMARKS
RALEIGH DURHAM PTSUNNY   79  57  46 E6        30.22F
ROCKY MOUNT    PTSUNNY   78  54  43 SE3       30.21F
ROANOKE RAPIDS NOT AVBL
FAYETTEVILLE   MOSUNNY   79  50  36 E8        30.19F
HOFFMAN        PTSUNNY   79  53  40 E5G14     30.23F

.........WESTERN NC.........

CITY           SKY/WX    TMP DP  RH WIND       PRES   REMARKS
CHARLOTTE      MOSUNNY   81  54  39 NE8       30.20F
GREENSBORO     PTSUNNY   80  56  43 CALM      30.21F
HICKORY        NOT AVBL
BOONE          NOT AVBL
ASHEVILLE      NOT AVBL

.....................REST OF SOUTH CAROLINA.....................

.........EASTERN SC.........

CITY           SKY/WX    TMP DP  RH WIND       PRES   REMARKS
CHARLESTON     PTSUNNY   78  58  49 NE12      30.14F
BEAUFORT MCAS  PTSUNNY   79  61  53 NE8       30.14F
HILTON HEAD    PTSUNNY   75  61  60 NE8G16    30.15F

.........CENTRAL SC.........

CITY           SKY/WX    TMP DP  RH WIND       PRES   REMARKS
COLUMBIA       PTSUNNY   80  55  42 NE12G22   30.18F
ORANGEBURG     MOSUNNY   77  51  40 NE9       30.18F
SUMTER SHAW    MOSUNNY   78  55  44 E12       30.17F

.........WESTERN SC.........

CITY           SKY/WX    TMP DP  RH WIND       PRES   REMARKS
GREENVILLE     NOT AVBL
ROCK HILL      PTSUNNY   78  57  48 MISG      30.21F
ANDERSON       MOSUNNY   81  56  42 E12       30.20F
CLEMSON        NOT AVBL
GREENWOOD      MOSUNNY   77  56  48 E6        30.22F


...................COASTAL AND OFFSHORE REPORTS..................

................LOCAL PIERS AND NC RESERVE................


STATION/POSITION TIME  SKY/WX   TEMP    WIND        PRES    VSBY
                                AIR SEA DIR/SP/G
                 (UTC)          (F)     (DEG/KT/KT) (MB)    (MI)
JOHNY MRCER PIER 1600            69 71   50/ 12/ 14 1022.5F
NC RESRV MASNBRO NOT AVBL
OCEAN CREST PIER NOT AVBL
SPRINGMAID  PIER 1600            70 71   40/ 11/ 12 1022.3F


................COASTAL AND OFFSHORE BUOYS................


STATION/POSITION TIME  SKY/WX   TEMP    WIND        PRES    VSBY
                                AIR SEA DIR/SP/G
                 (UTC)          (F)     (DEG/KT/KT) (MB)    (MI)
DIMNDSHOAL 41025 1650            71 74  100/ 12/ 14 1023.6F
WVE H/P(F/S)=  3/ 6 WND WVE H/P(F/S)=  2/ 5 SWL H/P/D(F/S/D)=  3/130/ 6

CAPE LOOKOUT     1700            69      40/ 13/ 14 1022.7F
ONSLOW BAY 41036 NOT AVBL
5 WRITEBCH 41038 1608            69 68   60/ 12/ 17 1022.7F
MASONBORO  41110 1619               69                N/A
WVE H/P(F/S)=  4/ 7 WND WVE H/P(F/S)=  3/ 7

WILM HARBR 41108 1611               69                N/A
WVE H/P(F/S)=  3/ 8 WND WVE H/P(F/S)=  3/ 8

27WRITEBCH 41037 1600            67 71   70/ 16/ 19   N/A
FRYING PAN 41013 1650            73 71   70/ 17/ 21 1021.9F
WVE H/P(F/S)=  6/ 7 WND WVE H/P(F/S)=  5/ 7

SUNST NRSH 41024 1608            72      80/ 10/ 14 1022.3
CAPRS NRSH 41029 1608            71      50/ 17/ 23 1021.6R
EDISTO     41004 1650            73 73   60/ 19/ 23 1019.4F
WVE H/P(F/S)=  7/ 8 WND WVE H/P(F/S)=  5/ 6 SWL H/P/D(F/S/D)=  3/ 8



..........OFFSHORE BUOYS BEYOND 100 NM OFFSHORE...........
.....IN A TRIANGLE---HAT TO BERMUDA TO BAHAMAS TO HAT.....


STATION/POSITION TIME  SKY/WX   TEMP    WIND        PRES    VSBY
                                AIR SEA DIR/SP/G
                 (UTC)          (F)     (DEG/KT/KT) (MB)    (MI)
150E HAT   41001 NOT AVBL
W BERMUDA  41048 1650            70 70  110/ 14/ 17 1023.8F
WVE H/P(F/S)=  4/ 9 WND WVE H/P(F/S)=  3/ 5 SWL H/P/D(F/S/D)=  3/ 50/ 9

ATLANTIC S 41049 1650            75 77   80/ 14/ 16 1023.8F
WVE H/P(F/S)=  5/ 9 WND WVE H/P(F/S)=  3/ 6 SWL H/P/D(F/S/D)=  3/ 20/ 9

E BAHAMAS  41046 1650            80 80  120/ 17/ 21 1019.7F
WVE H/P(F/S)=  6/ 7 WND WVE H/P(F/S)=  7/ 7 SWL H/P/D(F/S/D)=  2/ 80/11

NE BAHAMAS 41047 1650            78 78  150/ 17/ 21 1019.3F
WVE H/P(F/S)=  7/ 8 WND WVE H/P(F/S)=  7/ 8 SWL H/P/D(F/S/D)=  2/ 50/11

120E CANVRL41010 1620            70 78   10/ 19/ 21 1016.2F

END


USA.gov is the U.S. government's official web portal to all federal, state and local government web resources and services.